Location: 10033 Water Well
(34.0865°N, 106.8959°W)
Time: 16:54:53
(UTC+00:00)

Cosmos 1331 Rocket - Pass Details

Date: 13 January 2026
Orbit: 745 x 773 km, 74.0° (Epoch: 11 February)

Event Time Altitude Azimuth Distance (km) Brightness Sun altitude
Rises 01:24:11 0° 199° (SSW) 3,174 7.7 -13.4°
Reaches altitude 10° 01:26:32 10° 200° (SSW) 2,252 6.9 -13.9°
Maximum altitude 01:31:37 78° 286° (WNW) 765 4.1 -14.9°
Drops below altitude 10° 01:36:45 10° 14° (NNE) 2,264 6.2 -15.9°
Enters shadow 01:37:59 - 15° (NNE) 2,746 6.6 -16.2°
